Regional Weather Roundup
Issued by NWS Mt. Holly, NJ

Home | Current Version | Previous Version | Text Only | Print | Product List | Glossary On
Versions: 1 2 3 4 5 6 7 8 9 10 11 12 13 14 15 16 17 18 19 20 21 22 23 24 25 26 27 28 29 30 31 32 33 34 35 36 37 38 39 40 41 42 43 44 45 46 47 48 49 50
000
ASUS41 KPHI 042312
RWRPHI

REGIONAL WEATHER ROUNDUP
NATIONAL WEATHER SERVICE MOUNT HOLLY NJ
600 PM EST SUN DEC 04 2016

NOTE:  "FAIR" INDICATES FEW OR NO CLOUDS BELOW 12,000 FEET WITH NO
SIGNIFICANT WEATHER AND/OR OBSTRUCTIONS TO VISIBILITY.

 * = STATION DOES NOT REPORT PRECIPITATION (E.G. RAIN, SNOW, ETC.)
        OR FOG.

NJZ015>026-050000-
SOUTHERN NEW JERSEY

CITY           SKY/WX    TMP DP  RH WIND       PRES   REMARKS
POMONA         CLOUDY    41  28  60 SW3       30.20S
WILDWOOD*      CLOUDY    42  32  67 CALM      30.21F
MILLVILLE      CLOUDY    39  32  76 CALM      30.20F
WRIGHTSTOWN    CLOUDY    39  28  64 CALM      30.16S
MOUNT HOLLY    PTCLDY    38  26  62 CALM      30.19S
TRENTON        PTCLDY    42  24  49 CALM      30.17F

$$
NJZ001>014-050000-
NORTHERN NEW JERSEY

CITY           SKY/WX    TMP DP  RH WIND       PRES   REMARKS
SUSSEX         CLOUDY    34  25  69 CALM      30.17S
ANDOVER*         N/A     35  25  66 CALM      30.17S
MORRISTOWN     PTCLDY    36  25  64 CALM      30.19R
NEWARK         MOCLDY    42  22  44 NE6       30.19R
TETERBORO      CLOUDY    43  21  41 CALM      30.19R
CALDWELL       CLOUDY    39  24  55 CALM      30.19S
SOMERVILLE     PTCLDY    37  25  61 CALM      30.16F
ALLAIRE*       PTCLDY    39  25  57 CALM      30.20S
TOMS RIVER*    PTCLDY    36  31  82 CALM      30.20S

$$
PAZ043-044-047-054-055-060>062-066>071-050000-
EASTERN PENNSYLVANIA

CITY           SKY/WX    TMP DP  RH WIND       PRES   REMARKS
PHILADELPHIA   MOCLDY    44  26  49 S3        30.19F
NORTH PHILA    CLOUDY    42  25  50 CALM      30.20F
BLUE BELL*     MOCLDY    36  30  80 CALM      30.17F
DOYLESTOWN     PTCLDY    40  27  59 CALM      30.17S
QUAKERTOWN*    PTCLDY    37  27  65 CALM      30.17F
PERKASIE*      FAIR      36  25  64 CALM      30.17F
POTTSTOWN      CLOUDY    39  26  59 CALM      30.18F
LANCASTER      CLOUDY    41  29  62 S5        30.18S
COATESVILLE    CLOUDY    41  27  56 CALM      30.17F
READING        PTCLDY    42  25  50 CALM      30.16F
ALLENTOWN      PTCLDY    42  23  46 NE5       30.16F
MOUNT POCONO   PTCLDY    32  22  66 CALM      30.11F
HAZLETON       MOCLDY    34  23  64 CALM      30.14S
LEHIGHTON        N/A     36  28  75 CALM      30.17S
WILKES BARRE   MOCLDY    37  24  59 CALM      30.14F

$$
DEZALL-MDZ008-012-015-019-020-050000-
DELAWARE AND EASTERN MARYLAND

CITY           SKY/WX    TMP DP  RH WIND       PRES   REMARKS
WILMINGTON     MOCLDY    43  29  57 SW3       30.20F
DOVER          CLOUDY    41  33  73 SE5       30.18F
GEORGETOWN     CLOUDY    42  33  70 CALM      30.21S
EASTON         CLOUDY    43  30  61 CALM      30.24F
ABERDEEN       CLOUDY    42  32  68 CALM      30.20F
PATUXENT       CLOUDY    43  32  65 S3        30.20F
OCEAN CITY     CLOUDY    42  34  73 CALM      30.21F
WALLOPS ISLAND CLOUDY    42  35  76 CALM      30.22F
CAMBRIDGE      MOCLDY    37  32  81 CALM      30.20F
SALISBURY      CLOUDY    41  35  79 CALM      30.21S

$$
PAZ001-021-NYZ056-072-MDZ011-DCZ001-050000-
OTHER NEARBY LOCATIONS

CITY           SKY/WX    TMP DP  RH WIND       PRES   REMARKS
HARRISBURG     MOCLDY    43  31  62 S5        30.16S
STATE COLLEGE  PTCLDY    36  27  69 CALM      30.09F
WILLIAMSPORT   MOCLDY    38  26  62 E6        30.13F WCI  33
BINGHAMTON     CLOUDY    30  22  72 NE3       30.10F
NEW YORK CITY  PTCLDY    42  21  43 NE3       30.21S
BALTIMORE      CLOUDY    43  30  60 S3        30.19S
WASHINGTON DC  CLOUDY    45  31  58 S6        30.19F

$$



USA.gov is the U.S. government's official web portal to all federal, state and local government web resources and services.